[[{"header":{"parameterUnit":"m.s-1","parameterCategory":1,"la1":30.2991,"la2":30.254,"lo1":-89.0895,"lo2":-89.0444,"dy":0.0017,"dx":0.0017,"nx":28,"ny":28,"refTime":"2023-04-05T15:00:00:Z","depth":0,"parameterNumber":2,"parameterNumberName":"U-component_of_WINDS"},"data":[0,0,0,0,0,0,0,0,0,0,0,0,0,0,0,0,0,0,0,0,0,0,0,0,0,0,0,0,0,0,0,0,0,0,0,0,0,0,0,0,0,0,0,0,0,0,0,0,0,0,0,0,0,0,0,0,0,0,-3.8233,-3.8232,0,-3.8209,-3.8209,-3.8208,-3.8147,-3.8145,-3.8144,-3.8143,-3.812,-3.8121,-3.8122,0,0,0,0,0,0,0,0,0,0,0,0,0,-3.8228,-3.8228,-3.8233,-3.8232,-3.8232,-3.8209,-3.8209,-3.8208,-3.8147,-3.8145,-3.8144,-3.8142,-3.812,-3.8121,-3.8122,0,0,0,0,0,0,0,0,0,0,0,0,0,-3.822,-3.8228,-3.8233,-3.8199,-3.8195,-3.8209,-3.8209,-3.8208,-3.8147,-3.8145,-3.8143,-3.8141,-3.812,-3.8121,-3.8122,-3.8167,0,0,-3.8125,-3.8125,0,0,0,0,0,0,0,0,-3.822,-3.822,-3.8204,-3.8201,-3.8197,-3.8179,-3.8198,-3.8194,-3.8148,-3.8166,-3.8143,-3.8141,-3.8141,-3.8141,-3.814,-3.8166,-3.8165,-3.8125,-3.8125,-3.8126,-3.8126,0,0,0,0,0,0,0,-3.8221,-3.8221,-3.8223,-3.8204,-3.82,-3.8185,-3.8182,-3.8197,-3.8165,-3.8164,-3.8159,-3.8157,-3.8139,-3.814,-3.8139,-3.8165,-3.8125,-3.8125,-3.8126,-3.8126,-3.8226,-3.8228,0,0,0,0,0,0,-3.8226,-3.8222,-3.8224,-3.8223,-3.8204,-3.8187,-3.8183,-3.8187,-3.8165,-3.8159,-3.8159,-3.8155,-3.8139,-3.8138,-3.8138,-3.8189,-3.8126,-3.8127,-3.8127,-3.8224,-3.8226,-3.8228,0,0,0,0,0,0,-3.8226,-3.8227,-3.8225,-3.8221,-3.8219,-3.8189,-3.8194,-3.8187,-3.8187,-3.8161,-3.8155,-3.8165,-3.8137,-3.8137,-3.816,-3.8187,-3.8127,-3.8128,-3.8221,-3.8224,-3.8227,-3.829,0,0,0,0,0,0,-3.8226,-3.8227,-3.8243,-3.8222,-3.822,-3.8246,-3.8195,-3.8188,-3.8189,-3.8183,-3.8165,-3.816,-3.8136,-3.8159,-3.8161,-3.8187,-3.8129,-3.8219,-3.8223,-3.8226,-3.8286,-3.8295,-3.8304,0,0,0,0,0,-3.8226,-3.8263,-3.8244,-3.8245,-3.8239,-3.8248,-3.8247,-3.8218,-3.8191,-3.8208,-3.8191,-3.8161,-3.8185,-3.8162,-3.8164,-3.8191,-3.8217,-3.8221,-3.8226,-3.8282,-3.8293,-3.8303,0,0,0,0,0,0,-3.8289,-3.8259,-3.8239,-3.8269,-3.8261,-3.8238,-3.8257,-3.8231,-3.8232,-3.8226,-3.819,-3.8187,-3.8215,-3.8205,-3.8181,-3.8233,-3.8196,-3.8201,-3.8238,-3.8248,-3.8257,-3.8258,-3.8129,0,0,0,0,0,-3.8306,-3.8315,-3.8289,-3.8318,-3.8316,-3.8287,-3.829,-3.8268,-3.8259,-3.8256,-3.8241,-3.8234,-3.8239,-3.8244,-3.8248,-3.8285,-3.828,-3.8305,-3.8314,-3.8321,-3.8325,-3.8344,-3.8354,-3.8244,-3.8244,-3.8244,0,0,-3.8342,-3.8327,-3.8335,-3.8331,-3.8322,-3.8332,-3.8285,-3.8298,-3.8305,-3.8258,-3.8278,-3.8267,-3.8257,-3.8287,-3.83,-3.828,-3.8355,-3.8327,-3.8333,-3.8333,-3.8349,-3.836,-3.8369,-3.8247,-3.8246,-3.8246,0,0,-3.8412,-3.8402,-3.8424,-3.8417,-3.8405,-3.8386,-3.8392,-3.8372,-3.8363,-3.8382,-3.8347,-3.8356,-3.8367,-3.8361,-3.8359,-3.8429,-3.8401,-3.8432,-3.8477,-3.8495,-3.8504,-3.8511,-3.8534,-3.8543,-3.8436,-3.8436,-3.8437,0,-3.8458,-3.8471,-3.844,-3.8455,-3.8454,-3.8412,-3.8434,-3.8429,-3.842,-3.842,-3.8399,-3.8411,-3.8402,-3.8429,-3.8446,-3.8447,-3.8452,-3.8432,-3.8505,-3.8512,-3.8519,-3.854,-3.8549,-3.844,-3.844,-3.8439,-3.8439,0,-3.8527,-3.8537,-3.8558,-3.8548,-3.855,-3.8569,-3.8541,-3.8547,-3.8526,-3.851,-3.8531,-3.8518,-3.8518,-3.8524,-3.8504,-3.8549,-3.8537,-3.8511,-3.8472,-3.8533,-3.8553,-3.8561,-3.8445,-3.8444,-3.8443,-3.8442,0,0,-3.8633,-3.8607,-3.8615,-3.861,-3.8594,-3.8601,-3.862,-3.8619,-3.8624,-3.862,-3.8633,-3.8644,-3.862,-3.8619,-3.8598,-3.8614,-3.8668,-3.8586,-3.8585,-3.86,-3.8716,-3.8733,-3.8744,-3.8651,-3.8652,-3.8654,-3.8716,0,-3.8697,-3.8724,-3.8697,-3.873,-3.8739,-3.87,-3.8716,-3.8708,-3.8694,-3.87,-3.8685,-3.8692,-3.8661,-3.8659,-3.8674,-3.8658,-3.8691,-3.8654,-3.8662,-3.8663,-3.8663,-3.8754,-3.8773,-3.8832,-3.8724,-3.8725,-3.8726,0,-3.8775,-3.8773,-3.8806,-3.8788,-3.8791,-3.8805,-3.8802,-3.8809,-3.88,-3.8789,-3.8788,-3.8762,-3.8779,-3.8744,-3.8766,-3.8742,-3.8744,-3.8737,-3.8739,-3.8736,-3.8696,-3.8752,-3.885,-3.8859,-3.8738,-3.8737,-3.8736,0,-3.8846,-3.8853,-3.8873,-3.887,-3.885,-3.8861,-3.8854,-3.8843,-3.8844,-3.8843,-3.8844,-3.8845,-3.8845,-3.8847,-3.8823,-3.88,-3.8848,-3.8811,-3.8839,-3.8839,-3.8848,-3.8847,-3.8946,-3.8854,-3.8854,-3.8854,-3.8854,0,-3.8919,-3.894,-3.8904,-3.8917,-3.894,-3.891,-3.8934,-3.8923,-3.8914,-3.8924,-3.8892,-3.8902,-3.8871,-3.8878,-3.886,-3.888,-3.8882,-3.8873,-3.8867,-3.8874,-3.8875,-3.8873,-3.8867,-3.8856,-3.8856,-3.8855,-3.8855,0,-3.9001,-3.8978,-3.8998,-3.8978,-3.8973,-3.8991,-3.8974,-3.8985,-3.897,-3.8982,-3.8984,-3.896,-3.8967,-3.8944,-3.8947,-3.8935,-3.8965,-3.8954,-3.8967,-3.8963,-3.8991,-3.8988,-3.909,-3.9101,-3.9005,-3.9006,-3.9006,0,-3.9048,-3.9063,-3.9045,-3.9049,-3.9042,-3.905,-3.9051,-3.9023,-3.9026,-3.9017,-3.9029,-3.9034,-3.9035,-3.9048,-3.9031,-3.9034,-3.9021,-3.9057,-3.9021,-3.9027,-3.9019,-3.9017,-3.9018,-3.9063,-3.9064,-3.9065,-3.9066,0,-3.9132,-3.912,-3.9123,-3.9122,-3.9124,-3.9122,-3.9118,-3.9124,-3.9094,-3.9099,-3.9105,-3.9106,-3.911,-3.9114,-3.9113,-3.9106,-3.9081,-3.9078,-3.9084,-3.909,-3.9096,-3.9091,-3.8984,-3.9075,-3.9074,-3.9074,-3.9073,-3.9073,-3.9196,-3.9208,-3.9196,-3.9201,-3.9195,-3.9192,-3.9201,-3.9187,-3.9191,-3.9191,-3.9175,-3.9184,-3.9176,-3.9172,-3.9168,-3.9175,-3.9158,-3.9168,-3.917,-3.9172,-3.9175,-3.9097,-3.9175,-3.9175,-3.9174,-3.9174,-3.9174,0,-3.9277,-3.9268,-3.9272,-3.9267,-3.9271,-3.9248,-3.9243,-3.9247,-3.9255,-3.9249,-3.9251,-3.9259,-3.9263,-3.9247,-3.9249,-3.9258,-3.9247,-3.9259,-3.9257,-3.9256,-3.9191,-3.9184,-3.9269,-3.9269,-3.9269,-3.9269,-3.9269,-3.9268,-3.9319,-3.9337,-3.9324,-3.9339,-3.9331,-3.9339,-3.9337,-3.9335,-3.933,-3.9339,-3.9342,-3.9332,-3.9322,-3.9323,-3.9326,-3.9321,-3.9323,-3.9339,-3.933,-3.927,-3.926,-3.9251,-3.9245,-3.934,-3.934,-3.9394,-3.9394,-3.9395]},{"header":{"parameterUnit":"m.s-1","parameterCategory":1,"la1":30.2991,"la2":30.254,"lo1":-89.0895,"lo2":-89.0444,"dy":0.0017,"dx":0.0017,"nx":28,"ny":28,"refTime":"2023-04-05T15:00:00:Z","depth":0,"parameterNumber":3,"parameterNumberName":"V-component_of_WINDS"},"data":[0,0,0,0,0,0,0,0,0,0,0,0,0,0,0,0,0,0,0,0,0,0,0,0,0,0,0,0,0,0,0,0,0,0,0,0,0,0,0,0,0,0,0,0,0,0,0,0,0,0,0,0,0,0,0,0,0,0,2.3887,2.3887,0,2.3908,2.3909,2.3909,2.3925,2.3925,2.3925,2.3925,2.3947,2.3947,2.3948,0,0,0,0,0,0,0,0,0,0,0,0,0,2.3862,2.3863,2.3887,2.3887,2.3888,2.3908,2.3909,2.3909,2.3925,2.3925,2.3925,2.3926,2.3947,2.3947,2.3948,0,0,0,0,0,0,0,0,0,0,0,0,0,2.3877,2.3863,2.3887,2.3898,2.3899,2.3908,2.3909,2.3909,2.3925,2.3925,2.3925,2.3926,2.3947,2.3947,2.3948,2.3947,0,0,2.395,2.395,0,0,0,0,0,0,0,0,2.3876,2.3878,2.3896,2.3897,2.3899,2.3914,2.3908,2.3922,2.3925,2.3915,2.3925,2.3926,2.3936,2.3937,2.3941,2.3948,2.3949,2.395,2.395,2.395,2.3951,0,0,0,0,0,0,0,2.3875,2.3877,2.3895,2.3896,2.3898,2.3903,2.3905,2.3911,2.3924,2.3916,2.3917,2.392,2.3937,2.394,2.3941,2.395,2.395,2.395,2.3951,2.3951,2.3962,2.3961,0,0,0,0,0,0,2.3873,2.3876,2.3895,2.3896,2.3888,2.3903,2.3906,2.3909,2.3924,2.3926,2.3919,2.392,2.3939,2.3941,2.3942,2.3945,2.395,2.3951,2.3951,2.3962,2.3962,2.3961,0,0,0,0,0,0,2.3872,2.3874,2.3894,2.3887,2.389,2.3903,2.3907,2.3909,2.3913,2.3926,2.3929,2.392,2.3939,2.3941,2.3947,2.3946,2.3951,2.3952,2.3962,2.3962,2.3962,2.3949,0,0,0,0,0,0,2.3871,2.3874,2.3873,2.3887,2.389,2.3897,2.3907,2.391,2.3914,2.3915,2.3928,2.3931,2.394,2.3946,2.3947,2.3947,2.3952,2.3962,2.3962,2.3962,2.3949,2.3948,2.3947,0,0,0,0,0,2.387,2.3867,2.3873,2.3875,2.3889,2.3897,2.3899,2.391,2.3914,2.3914,2.3923,2.393,2.3946,2.3946,2.3948,2.3948,2.3962,2.3962,2.3962,2.395,2.3948,2.3947,0,0,0,0,0,0,2.3852,2.3869,2.3875,2.3877,2.3886,2.39,2.39,2.3907,2.3915,2.3916,2.3929,2.3931,2.3936,2.3942,2.3943,2.395,2.3955,2.3955,2.3945,2.3944,2.3943,2.3942,2.3953,0,0,0,0,0,2.3849,2.3853,2.3868,2.3868,2.3872,2.3886,2.3889,2.3897,2.3907,2.391,2.392,2.3929,2.3936,2.3941,2.3948,2.3951,2.3955,2.3952,2.3951,2.395,2.395,2.3955,2.3954,2.3961,2.3961,2.3961,0,0,2.384,2.3851,2.3853,2.3865,2.3873,2.3878,2.3888,2.3893,2.3898,2.3911,2.3917,2.3925,2.3936,2.3941,2.3944,2.3947,2.3949,2.3949,2.3949,2.3949,2.3954,2.3954,2.3953,2.396,2.3961,2.3961,0,0,2.3829,2.3837,2.3839,2.3847,2.3859,2.3869,2.3869,2.3883,2.3889,2.3896,2.3907,2.3913,2.3925,2.3933,2.3939,2.3936,2.3943,2.3938,2.3932,2.3937,2.3936,2.3936,2.3936,2.3936,2.3938,2.3938,2.3938,0,2.3818,2.3826,2.3839,2.3844,2.385,2.3864,2.3867,2.3875,2.3888,2.3893,2.3896,2.3913,2.3922,2.393,2.393,2.3933,2.3936,2.3936,2.3935,2.3935,2.3935,2.3936,2.3936,2.3937,2.3937,2.3937,2.3937,0,2.3813,2.3819,2.382,2.3834,2.384,2.3844,2.3859,2.3864,2.3872,2.3882,2.389,2.3901,2.3912,2.3915,2.3922,2.3926,2.3927,2.3933,2.3938,2.3933,2.3934,2.3935,2.3936,2.3936,2.3936,2.3937,0,0,2.3789,2.3813,2.3813,2.3821,2.3837,2.3842,2.3848,2.386,2.3865,2.3875,2.3882,2.3893,2.3899,2.3906,2.3915,2.3919,2.3918,2.3924,2.3925,2.3924,2.3926,2.3922,2.3922,2.3924,2.3924,2.3924,2.3925,0,2.3781,2.3792,2.3805,2.3813,2.382,2.3835,2.3841,2.3852,2.3862,2.387,2.3881,2.389,2.3896,2.3901,2.3906,2.3917,2.3919,2.3917,2.3931,2.3931,2.3928,2.3922,2.3917,2.3918,2.3925,2.3925,2.3925,0,2.3772,2.3783,2.3792,2.3811,2.3814,2.3819,2.3833,2.384,2.3854,2.3861,2.3871,2.3881,2.389,2.3895,2.3909,2.3907,2.3914,2.3921,2.3921,2.3923,2.3928,2.3925,2.3918,2.3918,2.3926,2.3926,2.3926,0,2.3756,2.3773,2.3781,2.3787,2.3808,2.3812,2.3821,2.3836,2.3843,2.3855,2.3861,2.3874,2.3881,2.3891,2.3905,2.3907,2.3918,2.3924,2.3925,2.3925,2.3927,2.3926,2.3922,2.393,2.393,2.393,2.393,0,2.3746,2.3751,2.3774,2.3779,2.3786,2.3802,2.3809,2.3819,2.3833,2.3841,2.3855,2.3862,2.388,2.3891,2.3902,2.3913,2.3915,2.3922,2.3925,2.3921,2.3921,2.3926,2.3927,2.393,2.393,2.393,2.393,0,2.3728,2.3744,2.3754,2.3774,2.378,2.3784,2.3802,2.3809,2.3821,2.3831,2.3835,2.3853,2.3867,2.3882,2.39,2.3908,2.3918,2.3922,2.3913,2.3915,2.3917,2.3917,2.3916,2.3918,2.3923,2.3923,2.3923,0,2.3721,2.3725,2.3747,2.3754,2.3764,2.3774,2.3783,2.38,2.3808,2.3827,2.3831,2.3846,2.3858,2.3879,2.3895,2.3909,2.3914,2.3913,2.3916,2.3913,2.3916,2.3916,2.3917,2.3912,2.3912,2.3912,2.3912,0,2.3707,2.3716,2.3727,2.3742,2.3752,2.3765,2.3778,2.3783,2.3803,2.3812,2.3827,2.3837,2.3857,2.3871,2.3889,2.3899,2.3909,2.3911,2.3912,2.3908,2.3904,2.3908,2.3912,2.391,2.3911,2.3911,2.3911,2.3911,2.3695,2.3701,2.3719,2.3732,2.3744,2.3757,2.3765,2.3779,2.3791,2.3809,2.3819,2.3834,2.3851,2.3876,2.3886,2.3899,2.3902,2.3903,2.3904,2.3904,2.3904,2.3902,2.3902,2.3902,2.3902,2.3902,2.3902,0,2.3683,2.3696,2.3709,2.3728,2.3739,2.3749,2.3765,2.3774,2.3787,2.3802,2.3815,2.3833,2.3849,2.3867,2.3884,2.3891,2.3896,2.3895,2.3895,2.3898,2.3899,2.3897,2.3891,2.3891,2.3891,2.3891,2.3891,2.3891,2.3679,2.369,2.3701,2.372,2.3733,2.3748,2.3757,2.3769,2.3782,2.3802,2.3816,2.3828,2.3845,2.3864,2.388,2.3885,2.3891,2.3888,2.3895,2.3896,2.3897,2.3898,2.3896,2.3889,2.3889,2.3892,2.3892,2.3892]}]]